VA3ECP Weather Reports


time (UTC)temp
C
wind
direction
speed
KPH
gust
KPH
rain 1hr
cm
rain 24hr
cm
rain mn
cm
humidity
%
barometer
mb
20260507030549 8 225 1.6 8.0 0.00 0.00 0.00 82 1009.2
20260507025626 8 0.0 8.0 0.00 0.00 0.00 82 1009.3
20260507024534 8 113 1.6 9.7 0.00 0.00 0.00 81 1009.2
20260507023520 8 158 1.6 9.7 0.00 0.00 0.00 81 1009.2
20260507022625 8 292 3.2 22.5 0.00 0.00 0.00 80 1009.1
20260507021521 8 155 3.2 12.9 0.00 0.00 0.00 80 1009.2
20260507020521 8 187 1.6 9.7 0.00 0.00 0.00 80 1009.2
20260507015538 8 0.0 4.8 0.00 0.00 0.00 79 1009.2
20260507014526 9 132 3.2 14.5 0.00 0.00 0.00 79 1009.2
20260507013520 9 166 3.2 14.5 0.00 0.00 0.00 79 1009.2
20260507012527 9 183 3.2 14.5 0.00 0.00 0.00 79 1009.2
20260507011651 9 167 6.4 17.7 0.00 0.00 0.00 78 1009.2
20260507010521 9 183 4.8 24.1 0.00 0.00 0.00 77 1009.2
20260507005529 10 125 3.2 12.9 0.00 0.00 0.00 77 1009.2
20260507004629 10 193 8.0 17.7 0.00 0.00 0.00 77 1009.1
20260507003522 10 143 6.4 19.3 0.00 0.00 0.00 77 1009.0
20260507002522 10 180 3.2 14.5 0.00 0.00 0.00 77 1009.0
20260507001526 10 355 4.8 14.5 0.00 0.00 0.00 77 1008.9
20260507000525 10 141 6.4 14.5 0.00 0.00 0.00 76 1008.8
20260506235522 10 182 3.2 17.7 0.00 0.00 0.00 75 1008.6
20260506234530 10 149 8.0 27.4 0.00 0.00 0.00 75 1008.6
20260506233520 10 122 8.0 24.1 0.00 0.00 0.00 74 1008.5
20260506232528 10 167 9.7 24.1 0.00 0.00 0.00 73 1008.4
20260506231536 11 147 1.6 12.9 0.00 0.00 0.00 73 1008.3
20260506230525 11 170 12.9 38.6 0.00 0.00 0.00 72 1008.3
20260506225521 11 162 17.7 24.1 0.00 0.00 0.00 72 1008.3
20260506224523 11 118 8.0 17.7 0.00 0.00 0.00 72 1008.4
20260506223520 11 114 12.9 22.5 0.00 0.00 0.00 71 1008.4
20260506222520 11 199 6.4 17.7 0.00 0.00 0.00 70 1008.4
20260506221528 11 94 4.8 14.5 0.00 0.00 0.00 70 1008.3
20260506220536 11 80 3.2 17.7 0.00 0.00 0.00 69 1008.2
20260506215526 11 210 9.7 24.1 0.00 0.00 0.00 69 1008.2
20260506214533 11 128 8.0 17.7 0.00 0.00 0.00 69 1008.2
20260506213524 12 123 9.7 19.3 0.00 0.00 0.00 68 1008.2
20260506212532 12 161 11.3 22.5 0.00 0.00 0.00 68 1008.2
20260506211520 12 189 14.5 32.2 0.00 0.00 0.00 66 1008.2
20260506210523 12 151 11.3 22.5 0.00 0.00 0.00 67 1008.2
20260506205533 12 175 8.0 17.7 0.00 0.00 0.00 65 1008.1
20260506204526 12 161 9.7 17.7 0.00 0.00 0.00 65 1008.1
20260506203527 12 200 6.4 17.7 0.00 0.00 0.00 65 1007.9
20260506202531 13 213 14.5 22.5 0.00 0.00 0.00 64 1008.0
20260506201521 12 200 14.5 29.0 0.00 0.00 0.00 66 1008.1
20260506200523 12 140 11.3 27.4 0.00 0.00 0.00 65 1008.4
20260506195529 12 177 11.3 27.4 0.00 0.00 0.00 65 1008.5
20260506194541 12 178 6.4 19.3 0.00 0.00 0.00 65 1008.5
20260506193528 13 173 11.3 24.1 0.00 0.00 0.00 64 1008.7
20260506192524 13 195 16.1 27.4 0.00 0.00 0.00 64 1008.7
20260506191524 13 206 6.4 22.5 0.00 0.00 0.00 65 1008.8
20260506185522 12 148 9.7 22.5 0.00 0.00 0.00 68 1008.8
20260506184530 12 196 6.4 22.5 0.00 0.00 0.00 68 1008.9
20260506183528 11 217 8.0 19.3 0.00 0.00 0.00 70 1009.0
20260506182547 11 214 8.0 22.5 0.00 0.00 0.00 71 1009.1
20260506181523 11 87 9.7 24.1 0.00 0.00 0.00 71 1009.1
20260506180524 11 165 3.2 17.7 0.00 0.00 0.00 73 1009.2
20260506175652 10 165 6.4 12.9 0.00 0.00 0.00 74 1009.3
20260506174521 10 146 11.3 22.5 0.00 0.00 0.00 75 1009.3
20260506173529 10 125 8.0 17.7 0.00 0.00 0.00 76 1009.3
20260506172521 9 182 6.4 12.9 0.00 0.00 0.00 77 1009.3
20260506171527 8 177 12.9 19.3 0.00 0.10 0.00 79 1009.4
20260506170531 8 191 8.0 27.4 0.00 0.20 0.00 79 1009.2
20260506165525 9 179 8.0 22.5 0.00 0.20 0.00 79 1009.3
20260506164520 8 190 4.8 19.3 0.00 0.20 0.00 80 1009.5
20260506163522 8 222 11.3 22.5 0.00 0.20 0.00 80 1009.4
20260506162519 8 183 9.7 17.7 0.00 0.20 0.00 80 1009.5
20260506161519 9 244 9.7 19.3 0.00 0.20 0.00 79 1009.6
20260506160527 10 166 6.4 14.5 0.00 0.20 0.00 77 1009.6
20260506155522 10 198 4.8 14.5 0.00 0.20 0.00 77 1009.5
20260506154521 9 193 11.3 22.5 0.00 0.20 0.00 77 1009.7
20260506153532 9 188 4.8 12.9 0.00 0.20 0.00 76 1009.7
20260506152525 9 186 9.7 22.5 0.00 0.20 0.00 76 1009.8
20260506151526 10 212 1.6 8.0 0.00 0.20 0.00 77 1009.8
20260506150519 9 246 6.4 9.7 0.00 0.20 0.00 77 1009.9
20260506145627 9 79 3.2 9.7 0.00 0.20 0.00 78 1010.0
20260506144523 8 202 11.3 19.3 0.00 0.20 0.00 79 1010.0
20260506143526 8 178 11.3 22.5 0.00 0.20 0.00 79 1010.0
20260506142628 8 140 6.4 22.5 0.00 0.20 0.00 81 1009.8
20260506141522 8 178 12.9 24.1 0.00 0.20 0.00 81 1009.8
20260506140532 7 204 4.8 17.7 0.00 0.20 0.00 81 1009.7
20260506135520 7 179 14.5 24.1 0.00 0.20 0.00 82 1009.6
20260506134524 7 171 6.4 19.3 0.00 0.20 0.00 82 1009.7
20260506133536 7 210 11.3 19.3 0.00 0.20 0.00 82 1009.7
20260506132542 7 210 4.8 9.7 0.00 0.20 0.00 82 1009.6
20260506131529 7 210 11.3 22.5 0.00 0.20 0.00 85 1009.5
20260506130528 8 213 9.7 17.7 0.00 0.20 0.00 83 1009.6
20260506125523 8 178 6.4 17.7 0.00 0.20 0.00 82 1009.9
20260506124520 8 193 4.8 12.9 0.00 0.20 0.00 81 1009.8
20260506123522 8 156 6.4 17.7 0.00 0.20 0.00 81 1009.7
20260506122530 8 153 9.7 19.3 0.00 0.20 0.00 80 1009.7
20260506121525 8 151 9.7 22.5 0.00 0.20 0.00 80 1009.6
20260506120519 8 165 11.3 19.3 0.00 0.20 0.00 81 1009.6
20260506115523 8 180 0.0 4.8 0.00 0.20 0.00 81 1009.7
20260506114525 8 180 0.0 4.8 0.00 0.20 0.00 82 1009.6
20260506113522 8 0.0 0.0 0.00 0.20 0.00 83 1009.6
20260506112528 8 0.0 0.0 0.00 0.20 0.00 83 1009.4
20260506111530 8 0.0 0.0 0.00 0.20 0.00 83 1009.4
20260506110520 8 0.0 0.0 0.00 0.20 0.00 83 1009.4
20260506105534 7 0.0 0.0 0.00 0.20 0.00 83 1009.4
20260506104521 7 0.0 0.0 0.00 0.20 0.00 83 1009.3
20260506103531 7 0.0 0.0 0.00 0.20 0.00 82 1009.3
20260506102523 7 0.0 0.0 0.00 0.20 0.00 82 1009.4
20260506101524 7 0.0 0.0 0.00 0.20 0.00 81 1009.6
20260506100522 7 0.0 0.0 0.00 0.20 0.00 80 1009.6
20260506095627 7 0.0 0.0 0.00 0.20 0.00 80 1009.7
20260506094534 7 0.0 0.0 0.00 0.20 0.00 80 1009.4
20260506093624 8 0.0 0.0 0.00 0.20 0.00 78 1009.2
20260506092647 8 0.0 0.0 0.00 0.20 0.00 75 1009.2
20260506091524 8 202 3.2 14.5 0.00 0.20 0.00 73 1009.1
20260506090522 8 169 6.4 17.7 0.00 0.20 0.00 72 1009.2
20260506084529 8 0.0 0.0 0.00 0.20 0.00 71 1009.3
20260506083539 8 0.0 0.0 0.00 0.20 0.00 70 1009.4
20260506082524 8 0.0 0.0 0.00 0.20 0.00 70 1009.4
20260506081533 8 0.0 0.0 0.00 0.20 0.00 70 1009.3
20260506080523 8 158 1.6 8.0 0.00 0.20 0.00 70 1009.0
20260506073527 8 0.0 0.0 0.00 0.20 0.00 70 1009.2
20260506072523 8 68 1.6 9.7 0.00 0.20 0.00 71 1009.3
20260506071525 8 0.0 0.0 0.00 0.20 0.00 70 1009.4
20260506070525 8 0.0 0.0 0.00 0.20 0.00 69 1009.4
20260506061532 8 0.0 0.0 0.00 0.20 0.00 67 1009.3
20260506060525 8 0.0 0.0 0.00 0.20 0.00 65 1009.3
20260506050526 9 338 1.6 9.7 0.00 0.20 0.00 63 1009.3
20260506044536 9 68 1.6 12.9 0.00 0.20 0.00 63 1008.8
20260506043524 9 23 0.0 9.7 0.00 0.20 0.00 63 1009.0
20260506042531 10 136 3.2 9.7 0.00 0.20 0.00 64 1009.0
20260506041621 10 293 1.6 8.0 0.00 0.20 0.00 64 1008.9
20260506040521 10 113 3.2 14.5 0.00 0.20 0.00 63 1008.8
20260506035524 10 90 1.6 8.0 0.00 0.20 0.20 63 1008.7
20260506034647 10 113 1.6 12.9 0.00 0.20 0.20 62 1008.7
20260506033525 10 0.0 12.9 0.00 0.20 0.20 61 1008.7
20260506032707 10 93 3.2 9.7 0.00 0.20 0.20 61 1008.7
20260506031525 10 159 1.6 9.7 0.00 0.20 0.20 59 1008.6